Regional Weather Roundup
Issued by NWS Bismarck, ND

Home | Current Version | Previous Version | Text Only | Print | Product List | Glossary On
Versions: 1 2 3 4 5 6 7 8 9 10 11 12 13 14 15 16 17 18 19 20 21 22 23 24 25 26 27 28 29 30 31 32 33 34 35 36 37 38 39 40 41 42 43 44 45 46 47 48 49 50
000
ASUS43 KBIS 031702
RWRBIS

NWR BROADCAST TEXT
NATIONAL WEATHER SERVICE BISMARCK ND
1200 PM CDT WED JUN 03 2015

NOTE: "FAIR" INDICATES FEW OR NO CLOUDS BELOW 12,000 FEET WITH NO
SIGNIFICANT WEATHER AND/OR OBSTRUCTIONS TO VISIBILITY.


CITY           SKY/WX    TMP DP  RH WIND       PRES   REMARKS
WILLISTON      CLOUDY    62  43  49 MISG      30.04S
MINOT          CLOUDY    57  39  51 N17       30.02R
MINOT AFB      CLOUDY    58  44  59 NE13      30.01S
BISMARCK       CLOUDY    58  44  60 N14       29.99S
DICKINSON      MOSUNNY   59  44  57 N9        30.03R
GARRISON         N/A     60  41  49 N6        30.01R
HETTINGER ARPT MOSUNNY   59  49  69 N9        30.03S
JAMESTOWN      CLOUDY    54  47  77 N16G23    29.90R
CARRINGTON     CLOUDY    52  48  87 N13G18    29.94R
OAKES            N/A     57  55  94 NW16      29.88R
STANLEY        FAIR      59  41  51 NE10      30.05R
$$

CITY           SKY/WX    TMP DP  RH WIND       PRES   REMARKS
GRAND FORKS    CLOUDY    55  48  77 N15       29.85R
GRAND FORKS AF CLOUDY    55  47  73 N16       29.87R
DEVILS LAKE    CLOUDY    55  43  62 N15G21    29.92S
FARGO          CLOUDY    58  53  84 NW16      29.83R
CAVALIER       CLOUDY    57  46  67 N14       29.91R
GRAFTON        CLOUDY    55  50  82 N14       29.89R
LANGDON        CLOUDY    57  43  58 N17G25    29.93R
ROLLA          CLOUDY    52  45  76 N21G26    30.00R
WALHALLA       FAIR      57  48  72 MISG      29.93R
$$

CITY           SKY/WX    TMP DP  RH WIND       PRES   REMARKS
ABERDEEN       CLOUDY    65  58  78 N17       29.87R
MOBRIDGE       CLOUDY    63  50  62 NW16G22   29.93R
BUFFALO          N/A     58  49  72 NE12      29.98R
RAPID CITY     CLOUDY    58  51  78 N12       30.04S
GLASGOW        PTSUNNY   62  49  62 S15       30.01S
SIDNEY         SUNNY     63  45  51 SE7       30.04F
WOLF POINT     CLOUDY    63  50  62 SE7       30.03S
GLENDIVE       PTSUNNY   57  48  72 E7        30.04S
MILES CITY     SUNNY     64  51  62 NE10      30.01S
BAKER          PTSUNNY   62  49  62 E10       30.05R
$$

CITY           SKY/WX    TMP DP  RH WIND       PRES   REMARKS
BILLINGS       PTSUNNY   58  51  78 E6        30.00F
GREAT FALLS    SUNNY     62  41  46 W5        29.97S
$$



USA.gov is the U.S. government's official web portal to all federal, state and local government web resources and services.